Regional Weather Roundup
Issued by NWS

Home | Current Version | Previous Version | Graphics & Text | Print | Product List | Glossary On
Versions: 1 2 3 4 5 6 7 8 9 10 11 12 13 14 15 16 17 18 19 20 21 22 23 24 25 26 27 28 29 30 31 32 33 34 35 36 37 38 39 40 41 42 43 44 45 46 47 48 49 50
000
ASUS45 KPSR 260310
RWRAZ

ARIZONA REGIONAL HOURLY WEATHER ROUNDUP
NATIONAL WEATHER SERVICE PHOENIX AZ
800 PM MST FRI JUL 25 2014

NOTE: FAIR INDICATES FEW OR NO CLOUDS BELOW 12,000 FEET WITH NO
SIGNIFICANT WEATHER AND/OR OBSTRUCTIONS TO VISIBILITY.

AZZ001>003-036-260400-
NORTHWEST ARIZONA

CITY           SKY/WX    TMP DP  RH WIND       PRES   REMARKS
BULLHEAD CITY  PTCLDY   106  59  21 S16       29.74R HX 106
KINGMAN        MOCLDY    87  55  33 NE14      30.03R
$$

AZZ004>008-015-016-018-260400-
NORTH CENTRAL ARIZONA

CITY           SKY/WX    TMP DP  RH WIND       PRES   REMARKS
GRAND CANYON   MOCLDY    72  46  39 SW3       30.30R
WILLIAMS       CLOUDY    70  50  49 SW5       30.37R
PRESCOTT       CLOUDY    69  56  62 VRB5      30.21R
FLAGSTAFF      CLOUDY    73  47  39 SW18      30.35R
PAYSON         CLOUDY    77  54  44 W13G21    30.19R
PAGE           MOCLDY    89  50  26 VRB3      30.05R
$$

AZZ009>014-017-260400-
NORTHEAST ARIZONA

CITY           SKY/WX    TMP DP  RH WIND       PRES   REMARKS
WINSLOW        TSTM      78  59  51 SW14      30.16R
SAINT JOHNS    PTCLDY    83  46  27 SW18      30.13R
WINDOW ROCK    PTCLDY    78  38  23 CALM      30.22R
SHOW LOW       MOCLDY    75  46  35 S8        30.26R
$$

AZZ023-260400-
GREATER PHOENIX AREA

CITY           SKY/WX    TMP DP  RH WIND       PRES   REMARKS
PHOENIX        CLOUDY    91  60  35 S14G28    29.85F
BUCKEYE          N/A     90  59  35 S12       29.86R
GLENDALE       CLOUDY    95  57  28 SE13      29.87R
LUKE AFB       NOT AVBL
DEER VALLEY    LGT RAIN  88  61  40 S14G26    29.89R
SCOTTSDALE     CLOUDY    88  63  42 SE6       29.90F
MESA-FALCON    CLOUDY    86  64  48 NE17      29.88F
MESA-GATEWAY     N/A    N/A N/A N/A MISG        N/A
CHANDLER       CLOUDY    90  63  40 S14       29.87S
$$

AZZ027-028-260400-
SOUTHWEST MARICOPA COUNTY AND PINAL COUNTY

CITY           SKY/WX    TMP DP  RH WIND       PRES   REMARKS
CASA GRANDE    CLOUDY    82  63  51 SW8       29.92S
$$

AZZ503-504-507>509-260400-
SOUTHEAST ARIZONA

CITY           SKY/WX    TMP DP  RH WIND       PRES   REMARKS
TUCSON         CLOUDY    83  62  49 N10       30.04R
DAVIS-MONTHAN  CLOUDY    81  62  52 NW9       30.03R
RYAN FIELD       N/A     79  68  69 W5        30.04R
NOGALES        CLOUDY    71  66  84 SE6       30.12R
SIERRA VISTA   MOCLDY    73  57  56 W14G22    30.15R
DOUGLAS        CLEAR     75  61  61 NW15      30.10R
SAFFORD        CLEAR     90  55  30 NW24      29.92R
$$

AZZ020-021-025-026-031-260400-
SOUTHWEST ARIZONA

CITY           SKY/WX    TMP DP  RH WIND       PRES   REMARKS
YUMA           MOCLDY   102  60  25 S15       29.76R HX 103
$$

CAZ031-033-041-043-047-048-061-260400-
SOUTHERN CALIFORNIA

CITY           SKY/WX    TMP DP  RH WIND       PRES   REMARKS
DOWNTOWN L.A.  PTCLDY    74  64  71 CALM      29.87R
L.A. AIRPORT   PTCLDY    70  63  78 W7        29.89R
SAN DIEGO      MOCLDY    73  64  73 CALM      29.91R
BURBANK        PTCLDY    79  62  56 S6        29.89R
ONTARIO        MOCLDY    84  56  38 W12       29.88S
RIVERSIDE      CLEAR     83  62  49 W8        29.88R
PALM SPRINGS   CLEAR     95  70  44 CALM      29.77R HX 101
EL CENTRO NAS  MOCLDY   101  65  30 S14       29.72R HX 104
IMPERIAL       MOCLDY   101  62  27 S13       29.72R HX 102
BLYTHE         MOCLDY   105  61  23 S12       29.75R HX 106
NEEDLES        PTCLDY   104  61  24 S5        29.76R HX 105
$$

NVZ020-UTZ003-260400-
SOUTHERN NEVADA-UTAH

CITY           SKY/WX    TMP DP  RH WIND       PRES   REMARKS
LAS VEGAS      MOCLDY    99  52  20 S17G28    29.81R
SALT LAKE CITY PTCLDY    84  41  21 W6        29.95R
$$

NMZ009-TXZ055-260400-
NEW MEXICO-WEST TEXAS

CITY           SKY/WX    TMP DP  RH WIND       PRES   REMARKS
ALBUQUERQUE    PTCLDY    90  43  19 S7        30.08R
EL PASO        PTCLDY    93  46  19 S6        29.99R
$$


........................KEY........................
SKY/WX - SKY CONDITION/WEATHER
TMP    - TEMPERATURE IN FAHRENHEIT
DP     - DEW POINT IN FAHRENHEIT
RH     - RELATIVE HUMIDITY IN PERCENT
WIND   - DIRECTION AND SPEED IN MILES PER HOUR (MPH)
VRB    - VARIABLE WIND DIRECTION
PRES   - MEAN SEA LEVEL PRESSURE IN INCHES OF MERCURY
         F - FALLING PRESSURE   R - RISING PRESSURE
         S - STEADY PRESSURE
VSB    - VISIBILITY IN MILES
HX     - HEAT INDEX IN FAHRENHEIT
WCI    - WIND CHILL INDEX IN FAHRENHEIT
TC     - TEMPERATURE IN CELSIUS WHICH IS ALSO KNOWN AS
         TEMPERATURE IN CENTIGRADE
AFB    - AIR FORCE BASE
         LUKE AFB IS LUKE AIR FORCE BASE
         DAVIS-MONTHAN IS DAVIS-MONTHAN AIR FORCE BASE
NAS    - NAVAL AIR STATION
         EL CENTRO NAS IS EL CENTRO NAVAL AIR STATION
N/A    - NOT AVAILABLE



USA.gov is the U.S. government's official web portal to all federal, state and local government web resources and services.